SCP
0 0 0 0 0 -0 -0 -0 -0 -0 0 0 0 0 0 0 0 0 0 0 0 0 0 0 0 0 0 0 0 0 0 0 0 0 0 0 0 0 0 0 0 0 0
0 0 0 0 0 0 0 0 0 0 0 0 0 0 0 0 0 0 0 0 0 0 0 0 0 0 0 0 0 0 0 0 0 0 0 0 0 0 0 0 0 0 0
0 0 0 0 0 0 0 0 0 0 0 0 0 0 0 0 0 0 0 0 0 0 0 0 0 0 0 0 0 0 0 0 0 0 0 0 0 0 0 0 0 0 0
0 0 0 0 0 0 0 0 0 0 0 0 0 0 0 -0 -0 0 0 0 0 0 0 0 0 0 0 0 0 0 0 0 0 -0 0 0 0 0 0 0 0 0 0
0 0 0 0 0 0 0 0 0 0 0 0 0 0 -0 -0 0 0 0 0 0 0 0 0 0 0 0 0 0 0 0 0 0 0 0 0 0 0 0 0 0 0 0
0 0 0 0 0 0 0 0 0 0 0 0 0 0 -0 -0 0 0 0 0 0 0 0 0 0 0 0 0 0 0 0 0 0 0 0 0 0 0 0 0 0 0 0
0 0 0 0 0 0 0 0 0 0 0 0 0 0 0 0 0 0 0 0 0 0 0 0 0 0 0 0 0 0 0 0 0 0 0 0 0 0 0 0 0 -0 0
0 0 0 0 0 0 0 0 0 0 0 0 0 0 0 0 0 0 0 0 0 0 0 0 0 0 0 0 0 0 0 0 0 0 0 0 0 0 0 0 0 0 0
0 0 0 0 0 0 0 0 0 0 0 0 0 0 0 0 0 0 0 0 0 0 0 0 0 0 0 0 0 0 0 0 0 0 0 0 0 0 0 0 0 0 0
0 0 0 0 0 0 0 0 0 0 0 0 0 0 0 0 0 0 0 0 0 0 0 0 0 0 0 0 0 0 0 0 0 0 0 0 0 0 0 0 0 0 0
0 0 0 0 0 0 0 0 0 0 0 0 0 0 0 0 0 0 0 0 0 0 0 0 0 0 0 0 0 0 0 0 0 0 0 0 0 0 0 0 0 0 0
0 0 0 0 0 0 0 0 0 0 0 0 0 0 0 0 0 0 0 0 0 0 0 0 0 0 0 0 0 0 0 0 0 0 0 0 0 0 0 0 0 0 0
0 0 0 0 0 0 0 0 0 0 0 0 0 0 0 0 0 0 0 0 0 0 0 0 0 0 0 0 0 0 0 0 0 0 0 0 0 0 0 0 0 0 0
0 0 0 0 0 0 0 0 0 0 0 0 0 0 0 0 0 0 0 0 0 0 0 0 0 0 0 0 0 0 0 0 0 0 0 0 0 0 0 0 0 0 0
0 0 0 0 0 0 0 0 0 0 0 0 0 0 0 0 0 0 0 0 0 0 0 0 0 0 0 0 0 0 0 0 0 0 0 0 0 0 0 0 0 0 0
0 0 0 0 0 0 0 0 0 0 0 0 0 0 0 0 0 0 0 0 0 0 0 0 0 0 0 0 0 0 0 0 0 0 0 0 0 0 0 0 0 0 0
0 0 0 0 0 0 0 0 0 0 0 0 0 0 0 0 0 0 -0 0 0 0 0 0 0 0 -0 0 0 0 0 0 0 0 0 0 0 0 0 0 0 0 0
0 0 0 0 0 0 0 0 0 0 0 0 0 0 0 0 -0 0 0 0 0 0 0 0 0 -0 -0 -0 -0 -0 -0 -0 -0 -0 0 0 0 0 0 0 0 0 0
0 0 0 0 0 0 0 0 0 0 -0 0 0 -0 -0 -0 -0 -0 0 0 0 0 0 0 -0 -0 -0 -0 -0 -0 -0 -0 -0 -0 -0 -0 0 0 0 0 0 0 0
0 0 0 0 0 0 0 0 0 0 0 0 -0 0 -0 -0 -0 -0 0 0 0 -0 -0 -0 0 -0 -0 -0 -0 -0 0 0 0 0 0 0 0 -0 0 0 0 0 0
0 0 0 0 0 0 0 0 0 0 0 0 0 0 -0 -0 -0 -0 0 0 0 0 0 -0 -0 -0 -0 -0 0 0 0 0 0 0 0 0 0 0 0 0 0 0 0
0 0 0 0 0 0 0 0 0 0 0 0 0 0 0 0 0 0 0 0 0 0 0 -0 -0 -0 -0 -0 -0 0 0 0 0 0 0 0 0 0 0 0 0 0 0
0 0 0 0 0 0 0 0 0 0 0 0 0 0 0 0 0 0 -0 0 0 0 -0 -0 -0 -0 -0 -0 -0 -0 -0 -0 -0 0 0 0 0 0 0 0 0 0 0
0 0 0 0 0 0 0 0 0 0 0 0 0 0 0 0 0 0 0 0 0 0 0 -0 -0 -0 -0 -0 -0 -0 -0 -0 0 0 0 0 0 0 0 0 0 -0 0
0 0 0 0 0 0 0 0 0 0 0 0 0 0 0 0 0 0 0 0 0 0 0 0 0 -0 -0 0 -0 -0 -0 -0 -0 0 0 0 0 0 0 0 -0 -0 -0
0 0 0 0 0 0 0 0 0 0 0 0 0 0 0 0 0 0 0 0 0 0 0 0 0 -0 -0 -0 -0 -0 -0 -0 -0 -0 0 0 0 0 0 0 -0 -0 -0
Wind_Speed_500mb
3 3 8 14 20 22 25 29 33 38 40 42 45 48 48 47 38 31 27 24 23 23 23 26 31 32 23 21 18 16 16 20 27 33 33 32 33 32 28 36 45 41 45
9 5 2 8 12 16 20 25 28 32 36 40 44 49 56 59 47 36 33 31 32 31 33 34 34 31 28 22 21 19 16 20 27 32 35 36 34 34 35 35 34 40 47
15 9 5 8 11 15 21 26 30 32 34 38 44 49 57 62 56 41 34 33 29 28 28 31 32 33 34 33 34 35 29 37 34 32 36 31 26 28 30 31 30 37 42
23 17 11 12 17 23 29 32 32 32 33 35 41 48 55 59 57 48 37 32 29 27 26 30 32 32 33 31 27 26 28 23 26 27 31 22 19 25 24 32 34 34 35
34 35 28 29 33 38 32 32 32 29 32 33 40 46 53 62 61 49 39 33 29 24 28 30 35 35 31 30 29 26 25 23 20 31 30 27 26 40 40 30 34 37 35
37 38 36 42 45 35 28 21 20 26 30 36 40 48 52 58 52 40 35 34 28 29 30 27 33 32 28 24 23 23 23 24 22 25 25 36 42 41 48 43 34 38 36
32 34 33 16 11 13 23 36 27 32 38 39 38 38 37 40 37 33 28 28 29 29 31 32 31 27 24 23 20 19 19 18 18 18 18 21 28 27 35 45 46 42 35
7 5 6 25 29 30 29 32 39 43 46 43 35 32 32 28 25 21 23 23 25 28 31 31 30 28 27 24 20 19 16 17 18 21 20 25 34 37 40 42 48 49 49
20 19 20 21 27 28 36 45 48 49 43 34 31 32 30 25 23 24 26 30 29 29 26 24 25 28 30 30 25 27 25 23 30 31 30 31 37 42 43 44 43 43 50
16 24 29 33 41 45 42 37 30 27 26 27 28 30 28 28 31 34 35 38 38 39 35 29 30 31 33 37 38 39 40 38 35 34 32 30 31 35 35 38 37 42 41
17 22 27 30 29 29 29 28 26 23 19 20 24 29 34 36 34 33 34 37 40 41 42 43 44 45 45 46 47 46 47 46 43 38 39 37 38 35 32 34 34 33 36
30 30 26 28 33 35 33 28 24 22 21 29 33 32 29 30 34 30 27 28 30 30 30 35 44 46 46 45 46 47 47 45 45 44 43 43 42 34 29 30 28 24 24
23 25 26 33 37 36 30 24 21 20 25 25 27 27 29 31 24 26 28 30 31 27 31 35 36 29 22 19 18 19 16 17 17 18 21 25 25 26 27 28 27 28 27
25 28 34 36 34 26 24 22 20 24 29 28 27 27 31 32 35 29 31 33 27 23 28 31 26 27 26 23 21 18 15 17 19 21 23 21 18 12 11 17 20 22 19
29 29 34 33 30 22 25 22 22 26 28 27 30 30 32 35 32 34 22 20 20 21 25 22 19 19 21 21 21 20 21 23 25 25 25 28 29 22 14 12 13 16 18
24 29 32 31 25 24 25 23 18 22 24 24 28 32 34 35 29 22 15 7 13 18 19 19 23 26 31 33 32 28 23 20 20 21 21 24 24 24 25 21 19 21 23
21 24 19 21 23 29 32 30 30 27 29 29 28 29 33 33 21 19 15 8 15 16 20 19 27 33 37 38 35 31 29 22 20 20 21 21 20 20 21 23 27 35 36
14 11 13 20 22 23 27 30 33 39 45 38 25 25 25 16 16 14 15 14 13 19 17 23 29 35 41 47 43 39 38 31 25 19 18 15 20 21 26 28 29 31 32
11 11 14 18 22 20 21 25 27 37 42 40 34 34 25 24 24 18 15 14 17 16 16 19 31 37 44 50 44 39 37 30 29 27 22 21 20 23 24 24 24 21 22
13 15 22 24 18 17 16 19 23 27 33 35 39 36 38 39 29 16 17 19 22 31 14 17 29 41 49 46 44 42 39 31 27 28 25 24 25 24 25 26 30 33 35
16 20 23 23 16 20 21 20 18 21 27 31 32 30 27 33 29 27 27 23 22 25 26 27 39 48 45 45 44 44 42 38 32 30 30 27 33 33 32 34 35 38 43
19 22 17 17 19 22 23 17 14 17 23 26 26 26 30 27 25 24 25 26 22 23 29 38 43 43 45 46 47 45 43 42 39 33 31 33 37 36 38 38 41 45 47
17 18 16 14 18 23 27 23 15 14 22 25 23 29 31 28 25 24 23 23 24 29 34 38 38 38 40 40 40 42 44 46 44 43 44 43 43 43 45 48 51 50 52
16 17 13 13 15 22 29 26 14 12 22 24 25 27 30 30 28 26 25 25 27 29 31 33 36 39 41 42 41 40 41 42 43 42 44 47 50 49 47 48 50 53 51
15 15 13 16 18 18 24 25 21 19 22 22 22 25 27 27 26 27 27 28 30 31 33 36 38 40 41 42 41 39 39 40 42 43 42 47 52 48 46 48 49 49 52
20 14 14 17 14 15 20 21 21 19 22 23 22 23 24 25 26 27 28 30 32 34 37 39 41 42 43 43 43 42 40 40 42 44 45 47 54 54 49 45 43 50 54
Wind_Direction_500mb
189 64 50 45 35 27 21 20 22 22 21 22 23 20 12 4 346 332 331 326 325 326 323 315 300 301 322 334 315 316 326 321 326 325 327 324 313 302 294 275 262 267 258
234 200 50 13 13 10 1 355 358 359 1 2 3 5 4 1 350 334 325 325 327 324 317 316 313 310 306 309 309 322 336 342 335 328 324 326 325 320 303 292 294 262 259
216 224 271 335 338 336 335 330 327 332 341 347 350 353 354 355 352 337 322 321 323 331 334 332 326 316 299 293 287 282 294 300 306 314 316 327 335 339 328 313 300 280 276
226 246 269 290 300 307 311 311 305 307 320 329 337 341 344 347 345 337 318 313 317 318 323 331 332 327 325 314 288 288 292 289 287 285 290 304 327 334 333 329 318 308 296
251 256 266 283 286 294 306 308 295 289 303 312 324 328 332 336 333 328 321 313 305 301 310 320 325 331 323 321 306 290 287 285 273 274 287 293 307 307 315 335 331 327 328
260 262 275 285 284 292 306 311 309 303 301 305 314 322 327 330 324 319 310 307 302 295 294 303 310 322 326 318 312 292 287 290 291 281 279 290 299 289 282 300 318 327 326
280 280 276 247 278 303 311 311 309 308 308 305 307 315 323 326 320 317 314 302 297 296 296 299 298 300 318 331 319 304 285 281 296 304 308 315 309 307 290 276 290 291 297
297 230 276 312 312 316 311 317 320 318 319 312 310 314 321 318 315 315 323 319 311 305 303 301 294 292 300 309 316 310 308 298 288 295 300 306 306 306 300 294 283 282 281
303 321 332 326 323 318 320 320 317 313 313 306 303 308 312 303 301 303 306 302 300 304 309 311 306 300 296 292 291 299 306 307 295 296 292 293 297 294 289 284 285 288 286
345 328 322 324 317 321 323 327 330 322 317 306 302 307 307 306 306 304 302 299 301 303 297 300 298 295 290 290 287 287 287 295 298 300 290 280 302 294 283 280 287 280 280
327 323 326 327 332 337 338 336 331 323 321 312 306 307 310 315 313 310 308 306 305 304 305 304 300 295 288 284 282 282 284 283 287 293 292 294 300 294 282 271 281 278 269
327 330 337 338 336 331 329 327 321 321 321 323 318 314 323 327 321 320 321 324 324 325 327 325 316 300 297 296 293 289 285 282 283 287 289 291 290 283 273 261 255 259 263
339 337 338 336 335 335 335 335 336 335 337 337 334 329 330 329 322 324 325 325 326 319 322 326 329 341 334 324 320 316 304 303 290 276 278 282 287 275 261 256 254 262 264
336 334 337 338 343 353 353 346 335 332 328 327 330 331 323 316 313 314 318 329 328 328 329 323 321 330 327 322 330 328 321 307 300 293 291 298 302 291 263 249 245 245 256
329 327 333 335 338 345 346 343 332 335 342 339 335 342 342 340 338 330 322 332 2 354 345 344 349 354 352 353 345 345 342 322 301 300 297 289 287 285 287 278 264 246 251
314 327 337 344 354 354 345 349 353 351 350 342 340 336 331 333 334 328 317 353 358 8 359 15 16 13 5 356 348 346 348 333 328 329 324 317 308 302 291 283 285 281 275
319 336 2 23 26 22 23 18 5 359 346 332 325 330 324 322 339 331 313 11 18 9 15 25 18 15 10 5 1 356 346 337 327 318 316 316 324 322 318 308 302 283 277
335 351 8 2 1 6 11 9 5 2 359 356 354 343 342 355 320 330 20 12 17 18 31 14 14 8 3 358 355 352 353 352 351 337 325 323 311 314 315 311 308 303 297
50 18 0 1 357 352 2 5 3 8 19 25 37 34 38 21 10 36 39 32 12 360 355 5 1 355 351 350 351 352 353 355 355 354 350 335 330 322 313 311 311 309 306
14 359 339 335 336 339 348 354 359 11 19 31 30 27 33 31 34 35 22 6 356 352 348 353 351 348 346 350 353 355 358 355 352 357 352 353 354 342 329 316 308 308 308
356 354 356 353 1 351 334 331 346 1 7 9 11 14 19 14 21 23 22 11 1 4 5 355 345 345 349 352 355 358 360 0 355 354 355 353 349 345 340 332 322 313 310
354 355 1 3 9 12 7 346 327 339 349 351 356 1 358 359 1 2 3 6 3 357 348 342 344 350 354 355 356 358 359 1 360 353 352 346 342 339 332 327 322 320 319
352 346 340 328 350 5 1 358 336 318 348 354 354 355 360 4 5 3 359 353 346 341 342 347 353 358 359 360 359 359 359 360 358 354 352 345 337 329 326 324 323 318 320
341 351 358 357 348 357 0 12 21 345 356 3 3 4 5 8 9 8 6 4 0 358 357 360 3 4 4 5 4 4 3 359 357 355 347 343 340 336 330 326 326 324 322
333 347 358 347 348 349 359 10 16 9 5 5 5 6 9 15 20 20 20 18 16 14 12 9 7 6 5 5 4 4 5 4 1 355 351 349 346 341 334 329 329 329 329
333 307 335 354 350 348 355 2 6 6 7 9 12 14 18 21 23 25 25 23 20 16 11 8 6 4 2 2 2 2 0 2 2 0 356 352 352 349 342 338 339 339 339
Wind_Speed_850mb
3 3 8 14 20 22 25 29 33 38 40 42 45 48 48 47 38 31 27 24 23 23 23 26 31 32 23 21 18 16 16 20 27 33 33 32 33 32 28 36 45 41 45
9 5 2 8 12 16 20 25 28 32 36 40 44 49 56 59 47 36 33 31 32 31 33 34 34 31 28 22 21 19 16 20 27 32 35 36 34 34 35 35 34 40 47
15 9 5 8 11 15 21 26 30 32 34 38 44 49 57 62 56 41 34 33 29 28 28 31 32 33 34 33 34 35 29 37 34 32 36 31 26 28 30 31 30 37 42
23 17 11 12 17 23 29 32 32 32 33 35 41 48 55 59 57 48 37 32 29 27 26 30 32 32 33 31 27 26 28 23 26 27 31 22 19 25 24 32 34 34 35
34 35 28 29 33 38 32 32 32 29 32 33 40 46 53 62 61 49 39 33 29 24 28 30 35 35 31 30 29 26 25 23 20 31 30 27 26 40 40 30 34 37 35
37 38 36 42 45 35 28 21 20 26 30 36 40 48 52 58 52 40 35 34 28 29 30 27 33 32 28 24 23 23 23 24 22 25 25 36 42 41 48 43 34 38 36
32 34 33 16 11 13 23 36 27 32 38 39 38 38 37 40 37 33 28 28 29 29 31 32 31 27 24 23 20 19 19 18 18 18 18 21 28 27 35 45 46 42 35
7 5 6 25 29 30 29 32 39 43 46 43 35 32 32 28 25 21 23 23 25 28 31 31 30 28 27 24 20 19 16 17 18 21 20 25 34 37 40 42 48 49 49
20 19 20 21 27 28 36 45 48 49 43 34 31 32 30 25 23 24 26 30 29 29 26 24 25 28 30 30 25 27 25 23 30 31 30 31 37 42 43 44 43 43 50
16 24 29 33 41 45 42 37 30 27 26 27 28 30 28 28 31 34 35 38 38 39 35 29 30 31 33 37 38 39 40 38 35 34 32 30 31 35 35 38 37 42 41
17 22 27 30 29 29 29 28 26 23 19 20 24 29 34 36 34 33 34 37 40 41 42 43 44 45 45 46 47 46 47 46 43 38 39 37 38 35 32 34 34 33 36
30 30 26 28 33 35 33 28 24 22 21 29 33 32 29 30 34 30 27 28 30 30 30 35 44 46 46 45 46 47 47 45 45 44 43 43 42 34 29 30 28 24 24
23 25 26 33 37 36 30 24 21 20 25 25 27 27 29 31 24 26 28 30 31 27 31 35 36 29 22 19 18 19 16 17 17 18 21 25 25 26 27 28 27 28 27
25 28 34 36 34 26 24 22 20 24 29 28 27 27 31 32 35 29 31 33 27 23 28 31 26 27 26 23 21 18 15 17 19 21 23 21 18 12 11 17 20 22 19
29 29 34 33 30 22 25 22 22 26 28 27 30 30 32 35 32 34 22 20 20 21 25 22 19 19 21 21 21 20 21 23 25 25 25 28 29 22 14 12 13 16 18
24 29 32 31 25 24 25 23 18 22 24 24 28 32 34 35 29 22 15 7 13 18 19 19 23 26 31 33 32 28 23 20 20 21 21 24 24 24 25 21 19 21 23
21 24 19 21 23 29 32 30 30 27 29 29 28 29 33 33 21 19 15 8 15 16 20 19 27 33 37 38 35 31 29 22 20 20 21 21 20 20 21 23 27 35 36
14 11 13 20 22 23 27 30 33 39 45 38 25 25 25 16 16 14 15 14 13 19 17 23 29 35 41 47 43 39 38 31 25 19 18 15 20 21 26 28 29 31 32
11 11 14 18 22 20 21 25 27 37 42 40 34 34 25 24 24 18 15 14 17 16 16 19 31 37 44 50 44 39 37 30 29 27 22 21 20 23 24 24 24 21 22
13 15 22 24 18 17 16 19 23 27 33 35 39 36 38 39 29 16 17 19 22 31 14 17 29 41 49 46 44 42 39 31 27 28 25 24 25 24 25 26 30 33 35
16 20 23 23 16 20 21 20 18 21 27 31 32 30 27 33 29 27 27 23 22 25 26 27 39 48 45 45 44 44 42 38 32 30 30 27 33 33 32 34 35 38 43
19 22 17 17 19 22 23 17 14 17 23 26 26 26 30 27 25 24 25 26 22 23 29 38 43 43 45 46 47 45 43 42 39 33 31 33 37 36 38 38 41 45 47
17 18 16 14 18 23 27 23 15 14 22 25 23 29 31 28 25 24 23 23 24 29 34 38 38 38 40 40 40 42 44 46 44 43 44 43 43 43 45 48 51 50 52
16 17 13 13 15 22 29 26 14 12 22 24 25 27 30 30 28 26 25 25 27 29 31 33 36 39 41 42 41 40 41 42 43 42 44 47 50 49 47 48 50 53 51
15 15 13 16 18 18 24 25 21 19 22 22 22 25 27 27 26 27 27 28 30 31 33 36 38 40 41 42 41 39 39 40 42 43 42 47 52 48 46 48 49 49 52
20 14 14 17 14 15 20 21 21 19 22 23 22 23 24 25 26 27 28 30 32 34 37 39 41 42 43 43 43 42 40 40 42 44 45 47 54 54 49 45 43 50 54
Wind_Direction_850mb
189 64 50 45 35 27 21 20 22 22 21 22 23 20 12 4 346 332 331 326 325 326 323 315 300 301 322 334 315 316 326 321 326 325 327 324 313 302 294 275 262 267 258
234 200 50 13 13 10 1 355 358 359 1 2 3 5 4 1 350 334 325 325 327 324 317 316 313 310 306 309 309 322 336 342 335 328 324 326 325 320 303 292 294 262 259
216 224 271 335 338 336 335 330 327 332 341 347 350 353 354 355 352 337 322 321 323 331 334 332 326 316 299 293 287 282 294 300 306 314 316 327 335 339 328 313 300 280 276
226 246 269 290 300 307 311 311 305 307 320 329 337 341 344 347 345 337 318 313 317 318 323 331 332 327 325 314 288 288 292 289 287 285 290 304 327 334 333 329 318 308 296
251 256 266 283 286 294 306 308 295 289 303 312 324 328 332 336 333 328 321 313 305 301 310 320 325 331 323 321 306 290 287 285 273 274 287 293 307 307 315 335 331 327 328
260 262 275 285 284 292 306 311 309 303 301 305 314 322 327 330 324 319 310 307 302 295 294 303 310 322 326 318 312 292 287 290 291 281 279 290 299 289 282 300 318 327 326
280 280 276 247 278 303 311 311 309 308 308 305 307 315 323 326 320 317 314 302 297 296 296 299 298 300 318 331 319 304 285 281 296 304 308 315 309 307 290 276 290 291 297
297 230 276 312 312 316 311 317 320 318 319 312 310 314 321 318 315 315 323 319 311 305 303 301 294 292 300 309 316 310 308 298 288 295 300 306 306 306 300 294 283 282 281
303 321 332 326 323 318 320 320 317 313 313 306 303 308 312 303 301 303 306 302 300 304 309 311 306 300 296 292 291 299 306 307 295 296 292 293 297 294 289 284 285 288 286
345 328 322 324 317 321 323 327 330 322 317 306 302 307 307 306 306 304 302 299 301 303 297 300 298 295 290 290 287 287 287 295 298 300 290 280 302 294 283 280 287 280 280
327 323 326 327 332 337 338 336 331 323 321 312 306 307 310 315 313 310 308 306 305 304 305 304 300 295 288 284 282 282 284 283 287 293 292 294 300 294 282 271 281 278 269
327 330 337 338 336 331 329 327 321 321 321 323 318 314 323 327 321 320 321 324 324 325 327 325 316 300 297 296 293 289 285 282 283 287 289 291 290 283 273 261 255 259 263
339 337 338 336 335 335 335 335 336 335 337 337 334 329 330 329 322 324 325 325 326 319 322 326 329 341 334 324 320 316 304 303 290 276 278 282 287 275 261 256 254 262 264
336 334 337 338 343 353 353 346 335 332 328 327 330 331 323 316 313 314 318 329 328 328 329 323 321 330 327 322 330 328 321 307 300 293 291 298 302 291 263 249 245 245 256
329 327 333 335 338 345 346 343 332 335 342 339 335 342 342 340 338 330 322 332 2 354 345 344 349 354 352 353 345 345 342 322 301 300 297 289 287 285 287 278 264 246 251
314 327 337 344 354 354 345 349 353 351 350 342 340 336 331 333 334 328 317 353 358 8 359 15 16 13 5 356 348 346 348 333 328 329 324 317 308 302 291 283 285 281 275
319 336 2 23 26 22 23 18 5 359 346 332 325 330 324 322 339 331 313 11 18 9 15 25 18 15 10 5 1 356 346 337 327 318 316 316 324 322 318 308 302 283 277
335 351 8 2 1 6 11 9 5 2 359 356 354 343 342 355 320 330 20 12 17 18 31 14 14 8 3 358 355 352 353 352 351 337 325 323 311 314 315 311 308 303 297
50 18 0 1 357 352 2 5 3 8 19 25 37 34 38 21 10 36 39 32 12 360 355 5 1 355 351 350 351 352 353 355 355 354 350 335 330 322 313 311 311 309 306
14 359 339 335 336 339 348 354 359 11 19 31 30 27 33 31 34 35 22 6 356 352 348 353 351 348 346 350 353 355 358 355 352 357 352 353 354 342 329 316 308 308 308
356 354 356 353 1 351 334 331 346 1 7 9 11 14 19 14 21 23 22 11 1 4 5 355 345 345 349 352 355 358 360 0 355 354 355 353 349 345 340 332 322 313 310
354 355 1 3 9 12 7 346 327 339 349 351 356 1 358 359 1 2 3 6 3 357 348 342 344 350 354 355 356 358 359 1 360 353 352 346 342 339 332 327 322 320 319
352 346 340 328 350 5 1 358 336 318 348 354 354 355 360 4 5 3 359 353 346 341 342 347 353 358 359 360 359 359 359 360 358 354 352 345 337 329 326 324 323 318 320
341 351 358 357 348 357 0 12 21 345 356 3 3 4 5 8 9 8 6 4 0 358 357 360 3 4 4 5 4 4 3 359 357 355 347 343 340 336 330 326 326 324 322
333 347 358 347 348 349 359 10 16 9 5 5 5 6 9 15 20 20 20 18 16 14 12 9 7 6 5 5 4 4 5 4 1 355 351 349 346 341 334 329 329 329 329
333 307 335 354 350 348 355 2 6 6 7 9 12 14 18 21 23 25 25 23 20 16 11 8 6 4 2 2 2 2 0 2 2 0 356 352 352 349 342 338 339 339 339